Regional Weather Roundup
Issued by NWS

Home | Current Version | Previous Version | Graphics & Text | Print | Product List | Glossary On
Versions: 1 2 3 4 5 6 7 8 9 10 11 12 13 14 15 16 17 18 19 20 21 22 23 24 25 26 27 28 29 30 31 32 33 34 35 36 37 38 39 40 41 42 43 44 45 46 47 48 49 50
977
ASUS44 KLIX 240101
RWRLA
LOUISIANA WEATHER ROUNDUP
NATIONAL WEATHER SERVICE NEW ORLEANS LA
800 PM CDT TUE SEP 23 2014

NOTE: "FAIR" INDICATES FEW OR NO CLOUDS BELOW 12,000 FEET WITH NO
      SIGNIFICANT WEATHER AND/OR OBSTRUCTIONS TO VISIBILITY.
      SKY/WX - SKY CONDITION AND SIGNIFICANT WEATHER.
      TMP - AIR TEMPERATURE.    DP   - DEWPOINT TEMPERATURE.
      RH  - RELATIVE HUMIDITY.  PRES - PRESSURE.
      HX  - HEAT INDEX.         WCI  - WIND CHILL INDEX.

*  THESE STATIONS ARE NOT NWS OR FAA STATIONS AND ARE NOT UNDER
   NWS QUALITY CONTROL.

LAZ040-048-061>063-065-066-069-240200-
SOUTHEAST LOUISIANA

CITY           SKY/WX    TMP DP  RH WIND       PRES   REMARKS
N.O. AUDUBON   NOT AVBL
N.O. INTL ARPT PTCLDY    78  57  48 E5        30.04R
N.O. LAKEFRONT CLEAR     78  60  53 CALM      30.04S
N.O. DOWNTOWN* FAIR      79  55  44 CALM      30.04S
SLIDELL        CLEAR     68  62  81 N3        30.04R
BATON ROUGE    CLEAR     68  60  75 CALM      30.05R
BOOTHVILLE     CLEAR     78  66  66 NE12      30.04R
BELLE CHASSE   CLEAR     67  61  81 CALM      30.04R
BOGALUSA*        N/A     67  61  81 N5        30.07R
GALLIANO*      NOT AVBL
NEW ROADS*     FAIR      70  60  72 CALM      30.05S
GONZALES*      FAIR      67  65  94 CALM      30.04R
HAMMOND*       NOT AVBL
HOUMA*         CLEAR     70  61  73 E6        30.03R
PORT FOURCHON* CLEAR     77  63  61 NE10      30.07R

$$

LAZ041-044-053-054-240200-
SOUTHWEST LOUISIANA

CITY           SKY/WX    TMP DP  RH WIND       PRES   REMARKS
LAKE CHARLES   PTCLDY    73  58  59 NE8       30.04S
LAFAYETTE      PTCLDY    71  63  75 NE3       30.04R
PATTERSON      CLEAR     66  63  88 CALM      30.07R
SALT POINT       N/A     73  63  70 CALM      30.03R
NEW IBERIA     PTCLDY    71  60  68 N6        30.04S
CHENAULT AIRPK CLEAR     72  59  64 N6        30.05S

$$

LAZ027-028-240200-
CENTRAL LOUISIANA

CITY           SKY/WX    TMP DP  RH WIND       PRES   REMARKS
FORT POLK      PTCLDY    71  56  59 NE5       30.07S
ALEXANDRIA INT MOCLDY    67  59  75 N6        30.06R
ALEXANDRIA     MOCLDY    65  60  84 CALM      30.08R

$$

LAZ001-002-240200-
NORTHWEST LOUISIANA

CITY           SKY/WX    TMP DP  RH WIND       PRES   REMARKS
SHREVEPORT     MOCLDY    72  50  45 NE5       30.09R
BARKSDALE AFB  PTCLDY    71  52  51 NE5       30.10S
DTN SHREVEPORT PTCLDY    72  53  51 NE3       30.10R

$$

LAZ014-016-240200-
NORTHEAST LOUISIANA

CITY           SKY/WX    TMP DP  RH WIND       PRES   REMARKS
MONROE         PTCLDY    68  54  60 NE3       30.10S
TALLULAH       CLEAR     65  56  72 N5        30.09S

$$




USA.gov is the U.S. government's official web portal to all federal, state and local government web resources and services.